Weather Roundup
Issued by NWS Springfield, MO

Home | Current Version | Previous Version | Text Only | Print | Product List | Glossary On
Versions: 1 2 3 4 5 6 7 8 9 10 11 12 13 14 15 16 17 18 19 20 21 22 23 24 25 26 27 28 29 30 31 32 33 34 35 36 37 38 39 40 41 42 43 44 45 46 47 48 49 50
000
NZUS99 KSGF 211807
HRRSGF

HOURLY WEATHER
NATIONAL WEATHER SERVICE SPRINGFIELD MO
100 PM CDT SUN SEP 21 2014

......SGF CWA......

CITY           SKY/WX    TMP DP  RH WIND       PRES   REMARKS
SPRINGFIELD    SUNNY     77  45  32 N16       30.15F
6HR MIN TEMP:  68; 6HR MAX TEMP:  77;

JOPLIN         SUNNY     78  47  33 N13       30.17F
6HR MIN TEMP:  67; 6HR MAX TEMP:  78;

WEST PLAINS    SUNNY     78  46  32 N9        30.12F
6HR MIN TEMP:  68; 6HR MAX TEMP:  79;

ROLLA          SUNNY     75  47  36 NW13G24   30.10F HAZE
6HR MIN TEMP:  61; 6HR MAX TEMP:  75;

OSAGE BEACH    SUNNY     75  46  35 NW7G16    30.13F
BRANSON        MOSUNNY   81  55  41 N9        30.15S

......SURROUNDING SGF CWA......

CITY           SKY/WX    TMP DP  RH WIND       PRES   REMARKS
CHANUTE        SUNNY     78  47  33 N12       30.19F
PARSONS        SUNNY     80  46  30 N10G20    30.19F
EMPORIA        SUNNY     77  51  40 N10       30.22S
GROVE OK       SUNNY     79  50  36 NE8       30.16S
ROGERS AR      SUNNY     77  50  38 NE9       30.16S
SILOAM SPRINGS SUNNY     79  54  41 NE12      30.16S
HARRISON AR    MOSUNNY   81  65  58 N7        30.12F
NEAR YELLVILLE MOSUNNY   81  61  50 NW13      30.10F

......KANSAS AND MISSOURI......

CITY           SKY/WX    TMP DP  RH WIND       PRES   REMARKS
KANSAS CTY INT MOSUNNY   75  49  39 N17G25    30.18S
DOWNTOWN KC    SUNNY     77  47  34 N16G24    30.16F
COLUMBIA       SUNNY     75  49  39 NW17G23   30.11F
SEDALIA        SUNNY     78  45  30 N15G25    30.14S
ST JOSEPH      SUNNY     75  47  36 N16       30.19S
ST LOUIS       MOSUNNY   78  49  35 NW18G24   30.05S
SPIRIT OF STL  SUNNY     77  47  34 NW16G23   30.04F
KIRKSVILLE     MOSUNNY   70  49  47 NW17G24   30.13S
WICHITA        MOSUNNY   83  42  23 NE14G25   30.22F
TOPEKA         SUNNY     77  47  34 N15G24    30.21S
OLATHE         SUNNY     75  45  34 N13G22    30.17F

......TENNESSEE......

CITY           SKY/WX    TMP DP  RH WIND       PRES   REMARKS
MEMPHIS        PTSUNNY   88  68  51 NW13G18   30.01F HX  91
NASHVILLE      PTSUNNY   84  68  58 W12       29.96F

......ARKANSAS.......

CITY           SKY/WX    TMP DP  RH WIND       PRES   REMARKS
FAYETTEVILLE   PTSUNNY   76  68  76 N7        30.14S
FT SMITH       LGT RAIN  75  71  87 W8        30.10R
LITTLE ROCK    PTSUNNY   87  67  51 NW14      30.05F HX  90

......OKLAHOMA.......

CITY           SKY/WX    TMP DP  RH WIND       PRES   REMARKS
TULSA          MOSUNNY   78  60  53 N10G16    30.15F
PONCA CITY     MOSUNNY   80  48  32 NE15G23   30.18F
MCALESTER      MOSUNNY   86  67  52 N6        30.11F
OKLAHOMA CITY  MOSUNNY   88  69  53 NE8       30.14S HX  92

......IOWA............

CITY           SKY/WX    TMP DP  RH WIND       PRES   REMARKS
DES MOINES     MOSUNNY   70  48  45 N14G22    30.14S
QUAD CITIES    CLOUDY    63  49  60 NW14G25   30.05R

......ILLINOIS........

CITY           SKY/WX    TMP DP  RH WIND       PRES   REMARKS
QUINCY         SUNNY     71  46  40 NW16G30   30.06S
CHICAGO        CLOUDY    64  51  62 NW20      29.93R




USA.gov is the U.S. government's official web portal to all federal, state and local government web resources and services.